Regional Weather Roundup
Issued by NWS

Home | Current Version | Previous Version | Text Only | Print | Product List | Glossary Off
Versions: 1 2 3 4 5 6 7 8 9 10 11 12 13 14 15 16 17 18 19 20 21 22 23 24 25 26 27 28 29 30 31 32 33 34 35 36 37 38 39 40 41 42 43 44 45 46 47 48 49 50

000
ASUS45 KBOU 020707
RWRCO

WEATHER ROUNDUP FOR COLORADO
NATIONAL WEATHER SERVICE DENVER/BOULDER CO
100 AM MDT MON MAY 02 2016

NOTE: "FAIR" INDICATES FEW OR NO CLOUDS BELOW 12000 FEET WITH NO
SIGNIFICANT WEATHER AND/OR OBSTRUCTIONS TO VISIBILITY.

COZ001>005-013-030-031-020800-
...NORTHWEST COLORADO...

CITY           SKY/WX    TMP DP  RH WIND       PRES   REMARKS
CRAIG          MOCLDY    36  27  69 SW5       30.19R
HAYDEN         CLOUDY    39  25  56 E5        30.18R
MEEKER         MOCLDY    39  29  67 S3        30.18S
MOUNT WERNER   NOT AVBL
STEAMBOAT SPGS MOCLDY    34  24  66 NW5       30.19S WCI  30
WALDEN         FAIR      21  16  79 CALM      30.25S
$$

COZ006>008-011-020800-
...WEST CENTRAL VALLEYS...

CITY           SKY/WX    TMP DP  RH WIND       PRES   REMARKS
GRAND JUNCTION MOCLDY    48  38  68 SE13      30.16R
MONTROSE       LGT RAIN  43  37  79 SE7       30.21S
EAGLE          CLOUDY    37  30  75 E6        30.22S
RIFLE          CLOUDY    45  39  79 E5        30.18R
DELTA          NOT AVBL
NUCLA          NOT AVBL
$$

COZ017>023-064>068-020800-
...SOUTHWEST COLORADO...

CITY           SKY/WX    TMP DP  RH WIND       PRES   REMARKS
DURANGO        CLOUDY    37  35  92 CALM      30.24R
CORTEZ         CLOUDY    43  39  86 CALM      30.21R
PAGOSA SPRINGS LGT SNOW  34  34 100 CALM      30.25S
TELLURIDE      FOG       32  32 100 CALM      30.25S VSB 3/4
WOLF CREEK PAS SNOW      21  21 100 SW12      30.30R VSB 1/4 WCI   9
$$

COZ009-010-012-014-032>034-037-058>063-020800-
...CENTRAL COLORADO...

CITY           SKY/WX    TMP DP  RH WIND       PRES   REMARKS
ASPEN          CLOUDY    36  26  67 SW6       30.19S
BUENA VISTA    CLOUDY    29  27  92 SE3       30.28S
COPPER MTN     NOT AVBL
BERTHOUD PASS  FAIR      14   3  62 N8        30.25S WCI   3
COTTONWOOD PAS FOG       28  25  86 CALM      30.26F VSB 1/4
GUNNISON       FAIR      34  28  80 CALM      30.26R
KREMMLING      FAIR      28  21  74 CALM      30.24S
LEADVILLE      CLOUDY    22  19  89 CALM      30.25S
MONARCH PASS   SNOW      19  18  93 MISG      30.36S VSB 1/2
SALIDA         CLOUDY    32  30  93 SE5       30.35S WCI  27
SUNLIGHT       LGT SNOW  30  28  93 CALM      30.29S
WILKERSON PASS FOG      N/A N/A N/A CALM      30.28S VSB 1
$$

COZ069>075-020800-
...SAN LUIS VALLEY/SANGRE DE CRISTO MOUNTAINS...

CITY           SKY/WX    TMP DP  RH WIND       PRES   REMARKS
ALAMOSA        CLOUDY    33  26  75 E3        30.24S
LA VETA PASS   CLOUDY    21  19  93 MISG      30.26F
SAGUACHE       MOCLDY    32  30  93 SE5       30.26S WCI  27
$$

COZ035-036-038>040-020800-
...NORTHERN COLORADO FRONT RANGE...

CITY           SKY/WX    TMP DP  RH WIND       PRES   REMARKS
DENVER INTL AP FAIR      32  26  78 SW8       30.28F WCI  25
DMNS CITY PARK   N/A     34  30  85 SE6       30.28S WCI  29
AURORA         FAIR      30  29  97 S6        30.29S WCI  24
FRONT RANGE AP NOT AVBL
ERIE MUNI ARPT FAIR      33  31  93 CALM      30.28F
BOULDER MUN AP MOCLDY    36  32  87 CALM      30.27F
CENTENNIAL     FAIR      29  25  85 CALM      30.28S
BROOMFIELD     CLOUDY    36  32  87 CALM      30.28F
FORT COLLINS   FAIR      32  25  74 N7        30.29S WCI  26
LONGMONT       FAIR      35  30  84 N5        30.30F WCI  30
$$

COZ041-046-047-076>085-087-088-020800-
...PIKES PEAK/PALMER DIVIDE AND SOUTHERN FOOTHILLS...

CITY           SKY/WX    TMP DP  RH WIND       PRES   REMARKS
COLO. SPRINGS  CLOUDY    33  25  72 CALM      30.29F
A. F. ACADEMY  FAIR      23  21  93 N5        30.27F WCI  17
SCHRIEVER AFB  NOT AVBL
ELLICOTT       NOT AVBL
FALCON         FAIR      25  21  83 W5        30.29S WCI  20
FORT CARSON    CLOUDY    36  30  81 CALM      30.28S
LIMON          FAIR      27  24  89 N3        30.28F
MONUMENT HILL  FAIR      23  21  93 NW6       30.29S WCI  16
TRINIDAD       CLOUDY    34  31  88 W3        30.29F
$$

COZ042>045-048>051-090-091-020800-
...NORTHEAST COLORADO...

CITY           SKY/WX    TMP DP  RH WIND       PRES   REMARKS
GREELEY ARPT   FAIR      28  27  93 N6        30.30S WCI  22
AKRON          FAIR      31  25  78 W13       30.27S WCI  21
BURLINGTON     FAIR      31  25  78 NW9       30.26F WCI  23
WRAY           NOT AVBL
STERLING       MOCLDY    32  28  86 SW8       30.27R WCI  25
HOLYOKE        NOT AVBL
FORT MORGAN    FAIR      30  28  92 W6        30.29S WCI  24
$$

COZ086-089-092>099-020800-
...SOUTHEAST COLORADO...

CITY           SKY/WX    TMP DP  RH WIND       PRES   REMARKS
PUEBLO         CLOUDY    40  33  76 W5        30.30F
LA JUNTA       FAIR      35  31  85 NW8       30.30S WCI  29
LAMAR          FAIR      34  28  79 CALM      30.27S
SPRINGFIELD      N/A     35  32  88 NW7       30.27S WCI  29
$$



USA.gov is the U.S. government's official web portal to all federal, state and local government web resources and services.